User: anonymous   Login
Location: Unspecified
(0.0000°N, 0.0000°E)
Time: 23:54:02
(UTC+00:00)
Language:

STARLINK-3762 - Orbit

View from above orbital plane
View from above orbital plane
View from above satellite
View from above satellite

Ground track
Ground track

The orbit is defined by the following mean orbital elements,

1 52374U          26145.45840919 +.00000000 +00000-0 -25681-4 0 00009
2 52374  53.2121 204.4925 0001435  81.0582 279.0572 15.08835396    00
Epoch (UTC): 25 May 2026 11:00:06
Eccentricity: 0.0001435
inclination: 53.2121°
perigee height: 539 km
apogee height: 541 km
right ascension of ascending node: 204.4925°
argument of perigee: 81.0582°
revolutions per day: 15.08835396
mean anomaly at epoch: 279.0572°

The dashed part of the orbit path shows where the satellite is in the earth's shadow,  

DLR